STARLINK-3807, 52353

Orbit data source: Space-Track

STARLINK-3807, 52353 is a payload satellite owned by SpaceX/Seattle (US) in LEO that was launched on Fri, 29 Apr 2022 UTC via an FALCON 9 launch vehicle from the Air Force Eastern Test Range (AFETR). Payload-class satellites include a variety of spacecraft equipped with specific instruments for various scientific and technological missions. These include communications satellites like Starlink; space stations such as the ISS; scientific satellites like the Hubble; Earth observation satellites from companies like Planet Labs, Umbra, and HawkEye 360; GPS; miniature CubeSats for education and research; and military/defense satellites.

Loading next visibility...
Identifier
52353, 2022-045Y
Orbit
LEO
Country
Flag of USUS
Related business
Manufacturer
SpaceX/Seattle
Mission
Operational Commercial Communications
Bus & Motor
STARLINK, Unknown motor
Mass
297 kg wet, ~275 kg dry
Launch date (UTC)
2022-04-29 (4 years ago)
Launch vehicle
FALCON 9
Launch site
Air Force Eastern Test Range (AFETR)
Object type
Payload
Rocket body
Debris
Shape & HBR
Box + 1 Pan, 10.1 m
Radar Cross Section
11.087 m², Large (>1 m²)

Expand to show TLE details & history
Last TLE update: 21 hours ago

TLE from 21 hours ago
0 STARLINK-3807
1 52353U 22045Y   25348.90531814  .00000983  00000-0  79844-4 0  9990
2 52353  53.2165 219.7332 0001366  84.4996 275.6152 15.08836189202983
Epoch: 2025-12-14T21:43Z
TLE epoch observation values (Epoch: 2025-12-14T21:43:39.487Z)
Latitude
-0.00001°
Longitude
170.00714°
Altitude
540.56 km
Speed
7.593 km/s
True Right ascension
14h 38m 55s
True Declination
0° 00' 00"
Sunlit
Object was in daylight at epoch
Visualization orbit readout
Latitude
Unknown
Longitude
Unknown
Altitude
Unknown
Speed
Unknown
Apparent Right ascension
Unknown
Apparent Declination
Unknown
Sunlit
N/A
Visualization observer readout
Local Sidereal Time
17:25:42
Azimuth
Unknown
Elevation
Unknown
Doppler factor
Unknown
Orbital elements
Apogee altitude
540.945 km
Perigee altitude
539.055 km
Semi-major axis
6,918.137 km
Eccentricity
0.00014
Inclination
53.2165°
RAAN
219.7332°
Arg. of periapsis
84.4996°
True anomaly
275.59962°
Mean anomaly
275.6152°
Eccentric anomaly
275.60741°
Mean motion
3.77189 °/min
Orbital period
95.44 mins
BSTAR
0.000079844
Loading maneuver chart data...
Computing Atmospheric mass density...
Loading historical data...
Loading historical data...
Loading historical data...
Loading historical data...
Loading historical data...
Loading historical data...
Loading historical data...

Documentation

Showing up to 5 results
|